Regional Weather Roundup
Issued by NWS Green Bay, WI

Home | Current Version | Previous Version | Graphics & Text | Print | Product List | Glossary Off
Versions: 1 2 3 4 5 6 7 8 9 10 11 12 13 14 15 16 17 18 19 20 21 22 23 24 25 26 27 28 29 30 31 32 33 34 35 36 37 38 39 40 41 42 43 44 45 46 47 48 49 50

000
ASUS43 KGRB 270100
RWRGRB

NORTH-CENTRAL AND NORTHEAST WISCONSIN REGIONAL WEATHER ROUNDUP
NATIONAL WEATHER SERVICE GREEN BAY WI
800 PM CDT FRI MAY 26 2017

WIZ005-009-010>012-018-019-270200-
NORTH CENTRAL WISCONSIN

CITY           SKY/WX    TMP DP  RH WIND       PRES   REMARKS
IRONWOOD       CLEAR     68  55  63 S6        29.77R
MANITOWISH WTR NOT AVBL
ARBOR VITAE    NOT AVBL
EAGLE RIVER    NOT AVBL
LAND O LAKES   CLOUDY    63  58  86 SE5       29.83S
RHINELANDER    CLOUDY    64  59  83 SE3       29.82S
PHILLIPS       CLOUDY    66  55  66 S9        29.78R
ANTIGO         NOT AVBL
TOMAHAWK       NOT AVBL
MERRILL        CLOUDY    68  54  61 S5        29.81S
$$

WIZ013-073-270200-
NORTHEAST WISCONSIN

CITY           SKY/WX    TMP DP  RH WIND       PRES   REMARKS
IRON MOUNTAIN  CLOUDY    64  53  67 SE7       29.82R
MARINETTE      CLOUDY    62  51  67 S6        29.85S
$$

WIZ017-030-035>037-045-270200-
CENTRAL WISCONSIN

CITY           SKY/WX    TMP DP  RH WIND       PRES   REMARKS
MEDFORD        NOT AVBL
WAUSAU         PTCLDY    65  52  62 S5        29.80R
MOSINEE        PTCLDY    64  55  72 S7        29.83R
MARSHFIELD     CLEAR     66  53  63 S8        29.80S
WISC RAPIDS    CLEAR     66  52  60 S7        29.83S
STEVENS POINT  NOT AVBL
WAUPACA        NOT AVBL
SHAWANO        CLOUDY    69  56  63 S3        29.83R
CLINTONVILLE   CLOUDY    66  54  63 S6        29.82S
WAUTOMA          N/A     66  54  65 SW8       29.84R
$$

WIZ038-039-048-051-270200-
FOX VALLEY

CITY           SKY/WX    TMP DP  RH WIND       PRES   REMARKS
NWS GREEN BAY  CLOUDY    65  58  78 SE8       29.83S
APPLETON       MOCLDY    64  52  63 SE8       29.82S
OSHKOSH        CLOUDY    64  55  72 S7        29.83R
FOND DU LAC    CLOUDY    65  53  65 S7        29.84R
$$

WIZ022-050-052-270200-
EAST CENTRAL WISCONSIN

CITY           SKY/WX    TMP DP  RH WIND       PRES   REMARKS
EPHRAIM        NOT AVBL
WASHINGTON ISL NOT AVBL
STURGEON BAY   MOCLDY    60  52  74 CALM      29.85S
MANITOWOC      NOT AVBL
SHEBOYGAN      CLOUDY    61  53  75 CALM      29.84S
$$

LMZ563-521-522-541>543-270200-
LAKESHORE

STATION/POSITION TIME  TEMP    WIND        PRES    VSBY  WAVE
                       AIR SEA DIR/SP/G                  HT/PER
                 (UTC) (F)     (DEG/KT/KT) (MB)    (MI)  (FT/S)
SHEBOYGAN LKSHOR 0000   51     160/  9/  9 1010.5F
KEWAUNEE LKSHORE 0030   52      CALM  /  3 1010.4F
NORTHPORT PIER   0040   59     160/  2/  4 1010.8R
N MID LAKE BUOY  2350   45 43  220/  4/  6 1011.5F         0
CHAMBERS ISLAND  0030   62      CALM  /  4 1010.2S
MENOMINEE LKSHOR 0030          150/  5/  7 1009.6F
$$




USA.gov is the U.S. government's official web portal to all federal, state and local government web resources and services.